[[{"header":{"parameterUnit":"m.s-1","parameterCategory":1,"la1":30.2991,"la2":30.254,"lo1":-89.0895,"lo2":-89.0444,"dy":0.0017,"dx":0.0017,"nx":28,"ny":28,"refTime":"2023-07-24T21:00:00:Z","depth":0,"parameterNumber":2,"parameterNumberName":"U-component_of_WINDS"},"data":[0,0,0,0,0,0,0,0,0,0,0,0,0,0,0,0,0,0,0,0,0,0,0,0,0,0,0,0,0,0,0,0,0,0,0,0,0,0,0,0,0,0,0,0,0,0,0,0,0,0,0,0,0,0,0,0,0,0,1.2055,1.2055,0,1.206,1.206,1.206,1.2026,1.2025,1.2024,1.2023,1.2027,1.2028,1.2029,0,0,0,0,0,0,0,0,0,0,0,0,0,1.2017,1.2017,1.2055,1.2055,1.2055,1.206,1.206,1.206,1.2026,1.2025,1.2024,1.2023,1.2027,1.2028,1.2029,0,0,0,0,0,0,0,0,0,0,0,0,0,1.2029,1.2018,1.2055,1.2039,1.2037,1.206,1.206,1.206,1.2026,1.2025,1.2023,1.2022,1.2026,1.2028,1.2029,1.2067,0,0,1.2034,1.2034,0,0,0,0,0,0,0,0,1.2028,1.203,1.2041,1.204,1.2038,1.2041,1.2048,1.2062,1.2027,1.203,1.2023,1.2021,1.2033,1.2034,1.2038,1.2067,1.2068,1.2034,1.2035,1.2035,1.2036,0,0,0,0,0,0,0,1.2027,1.203,1.2057,1.2041,1.204,1.2031,1.2031,1.205,1.204,1.203,1.2028,1.2029,1.2032,1.2036,1.2037,1.2068,1.2034,1.2035,1.2036,1.2037,1.213,1.2131,0,0,0,0,0,0,1.2029,1.2029,1.2057,1.2057,1.203,1.2033,1.2033,1.2042,1.2039,1.2038,1.203,1.2027,1.2034,1.2036,1.2037,1.2082,1.2035,1.2037,1.2038,1.2128,1.213,1.2132,0,0,0,0,0,0,1.2028,1.2031,1.2057,1.2043,1.2045,1.2035,1.2045,1.2042,1.2047,1.2039,1.2037,1.2037,1.2033,1.2035,1.206,1.2082,1.2037,1.2039,1.2126,1.2129,1.2131,1.2171,0,0,0,0,0,0,1.2027,1.2031,1.2045,1.2043,1.2046,1.2079,1.2046,1.2044,1.205,1.2046,1.2045,1.2043,1.2032,1.2058,1.2062,1.2083,1.204,1.2124,1.2128,1.213,1.2168,1.2175,1.2181,0,0,0,0,0,1.2026,1.2056,1.2046,1.205,1.2063,1.2081,1.2082,1.2069,1.2052,1.2066,1.2061,1.2043,1.2079,1.2061,1.2065,1.2087,1.2123,1.2127,1.213,1.2165,1.2173,1.218,0,0,0,0,0,0,1.206,1.2055,1.2044,1.2075,1.2079,1.2075,1.2092,1.2078,1.2087,1.2083,1.2067,1.2067,1.2094,1.2093,1.2073,1.2124,1.2098,1.2102,1.2123,1.2131,1.2137,1.2136,1.2041,0,0,0,0,0,1.2071,1.2086,1.2081,1.2109,1.2111,1.2102,1.2109,1.2099,1.2102,1.2103,1.21,1.2103,1.2115,1.2123,1.2134,1.2168,1.2168,1.2185,1.2192,1.2197,1.22,1.2219,1.2227,1.2144,1.2144,1.2144,0,0,1.2094,1.2094,1.2104,1.2116,1.2117,1.2133,1.2103,1.212,1.2132,1.2105,1.2128,1.2127,1.213,1.216,1.2173,1.216,1.2224,1.2201,1.2206,1.2206,1.2223,1.2231,1.2238,1.2146,1.2146,1.2145,0,0,1.2144,1.2145,1.2169,1.2171,1.2175,1.2169,1.2175,1.2173,1.2171,1.2195,1.2176,1.2189,1.221,1.2213,1.2217,1.2271,1.2255,1.2275,1.2307,1.2326,1.2332,1.2338,1.2357,1.2364,1.2279,1.2279,1.228,0,1.2172,1.2195,1.2182,1.2201,1.2207,1.2186,1.2209,1.2212,1.2219,1.2224,1.2209,1.2236,1.2236,1.2267,1.228,1.2285,1.2291,1.2274,1.2333,1.2338,1.2343,1.2361,1.2368,1.2282,1.2282,1.2281,1.2281,0,1.2229,1.2246,1.2264,1.2272,1.228,1.2301,1.2292,1.2302,1.2292,1.2288,1.2313,1.2313,1.2323,1.233,1.232,1.236,1.2352,1.2335,1.2309,1.2354,1.237,1.2377,1.2285,1.2284,1.2284,1.2283,0,0,1.2298,1.2301,1.2307,1.2311,1.2315,1.2327,1.2348,1.2359,1.2368,1.2374,1.2391,1.241,1.2396,1.2401,1.2391,1.2407,1.245,1.2389,1.2389,1.24,1.2494,1.2505,1.2513,1.244,1.2442,1.2443,1.2493,0,1.2346,1.2382,1.2372,1.2408,1.2423,1.2404,1.2422,1.2427,1.2424,1.2436,1.2433,1.2447,1.2427,1.243,1.2445,1.2442,1.2469,1.2438,1.2455,1.2456,1.2454,1.2522,1.2534,1.2581,1.25,1.2501,1.2502,0,1.2406,1.2416,1.2453,1.2456,1.2462,1.2478,1.2488,1.2501,1.2506,1.2502,1.2509,1.2497,1.2518,1.2493,1.2521,1.2501,1.2508,1.2508,1.2509,1.2509,1.248,1.2523,1.2596,1.2603,1.2512,1.2511,1.251,0,1.2452,1.2475,1.25,1.2504,1.2507,1.252,1.2522,1.2525,1.2533,1.2542,1.2547,1.2558,1.2564,1.2574,1.2565,1.2547,1.2595,1.2569,1.2592,1.2593,1.2602,1.2601,1.2676,1.2609,1.2608,1.2608,1.2608,0,1.2506,1.253,1.2521,1.2536,1.2563,1.2552,1.2578,1.2578,1.2582,1.2597,1.2582,1.2596,1.2585,1.2598,1.2592,1.2617,1.262,1.2617,1.2615,1.2618,1.2618,1.2621,1.2617,1.261,1.261,1.2609,1.2609,0,1.2561,1.2556,1.2582,1.2584,1.2586,1.2605,1.2606,1.2621,1.2618,1.2637,1.2641,1.2636,1.2652,1.2645,1.2661,1.2657,1.2688,1.2682,1.2687,1.2685,1.2708,1.2706,1.2787,1.2797,1.2724,1.2725,1.2725,0,1.2595,1.2613,1.2617,1.2627,1.263,1.2645,1.2654,1.2645,1.2654,1.2662,1.2676,1.2691,1.2701,1.2727,1.2725,1.2737,1.2731,1.2759,1.2732,1.2735,1.273,1.2728,1.273,1.2763,1.2764,1.2765,1.2765,0,1.2655,1.2653,1.2666,1.2678,1.2689,1.2699,1.2707,1.2715,1.2707,1.2718,1.2735,1.2743,1.2761,1.2775,1.2786,1.2788,1.2775,1.2774,1.278,1.2782,1.2783,1.2782,1.27,1.2771,1.2771,1.277,1.277,1.277,1.27,1.2715,1.2721,1.2736,1.2742,1.2751,1.2764,1.2764,1.2778,1.2791,1.2786,1.2805,1.281,1.2825,1.2828,1.2843,1.2832,1.2841,1.2843,1.2845,1.2847,1.2783,1.2845,1.2845,1.2845,1.2845,1.2844,0,1.2759,1.2762,1.2777,1.2789,1.2802,1.279,1.2799,1.281,1.2827,1.2834,1.2846,1.2865,1.2879,1.2879,1.2893,1.2904,1.2899,1.2908,1.2906,1.2907,1.2857,1.285,1.2912,1.2912,1.2912,1.2912,1.2912,1.2912,1.2791,1.2816,1.2815,1.2843,1.2847,1.2865,1.2871,1.2879,1.2885,1.2907,1.292,1.292,1.2924,1.2938,1.2951,1.2951,1.2956,1.2967,1.2965,1.2917,1.291,1.2904,1.2897,1.2969,1.2969,1.3013,1.3014,1.3014]},{"header":{"parameterUnit":"m.s-1","parameterCategory":1,"la1":30.2991,"la2":30.254,"lo1":-89.0895,"lo2":-89.0444,"dy":0.0017,"dx":0.0017,"nx":28,"ny":28,"refTime":"2023-07-24T21:00:00:Z","depth":0,"parameterNumber":3,"parameterNumberName":"V-component_of_WINDS"},"data":[0,0,0,0,0,0,0,0,0,0,0,0,0,0,0,0,0,0,0,0,0,0,0,0,0,0,0,0,0,0,0,0,0,0,0,0,0,0,0,0,0,0,0,0,0,0,0,0,0,0,0,0,0,0,0,0,0,0,-2.6038,-2.6039,0,-2.6103,-2.6104,-2.6105,-2.6075,-2.6074,-2.6072,-2.6071,-2.6134,-2.6138,-2.6141,0,0,0,0,0,0,0,0,0,0,0,0,0,-2.5887,-2.589,-2.6038,-2.6039,-2.604,-2.6103,-2.6104,-2.6105,-2.6076,-2.6074,-2.6072,-2.607,-2.6133,-2.6137,-2.6141,0,0,0,0,0,0,0,0,0,0,0,0,0,-2.5952,-2.5891,-2.6038,-2.6033,-2.6033,-2.6103,-2.6104,-2.6105,-2.6076,-2.6074,-2.6071,-2.6069,-2.6132,-2.6137,-2.6142,-2.6219,0,0,-2.6156,-2.6158,0,0,0,0,0,0,0,0,-2.5948,-2.5958,-2.6033,-2.6033,-2.6034,-2.6079,-2.6074,-2.6143,-2.6077,-2.606,-2.6071,-2.6068,-2.6118,-2.6123,-2.6141,-2.6222,-2.6225,-2.6157,-2.6159,-2.6162,-2.6163,0,0,0,0,0,0,0,-2.5944,-2.5955,-2.6064,-2.6034,-2.6035,-2.6027,-2.6033,-2.6087,-2.6101,-2.6061,-2.6059,-2.6067,-2.6117,-2.6136,-2.6142,-2.6226,-2.6156,-2.6161,-2.6164,-2.6166,-2.6374,-2.6376,0,0,0,0,0,0,-2.594,-2.5951,-2.6062,-2.6066,-2.5984,-2.6031,-2.6039,-2.6067,-2.6101,-2.6104,-2.6069,-2.6066,-2.6129,-2.6137,-2.6144,-2.6237,-2.6161,-2.6166,-2.6169,-2.6371,-2.6375,-2.6377,0,0,0,0,0,0,-2.5937,-2.595,-2.6059,-2.6008,-2.6021,-2.6037,-2.6068,-2.6069,-2.6088,-2.6107,-2.6109,-2.6086,-2.6128,-2.6138,-2.6201,-2.6239,-2.6168,-2.6173,-2.6368,-2.6372,-2.6376,-2.6424,0,0,0,0,0,0,-2.5932,-2.5949,-2.5979,-2.6009,-2.6024,-2.6116,-2.607,-2.6072,-2.6097,-2.6093,-2.6123,-2.6126,-2.6127,-2.6194,-2.6206,-2.6244,-2.6176,-2.6365,-2.637,-2.6375,-2.6419,-2.6429,-2.6438,0,0,0,0,0,-2.5927,-2.599,-2.5981,-2.5994,-2.6062,-2.6118,-2.6126,-2.6127,-2.61,-2.613,-2.6142,-2.6125,-2.6233,-2.6201,-2.6214,-2.6254,-2.6362,-2.6369,-2.6374,-2.6415,-2.6427,-2.6437,0,0,0,0,0,0,-2.5963,-2.5993,-2.5984,-2.6058,-2.6086,-2.6113,-2.6151,-2.614,-2.6175,-2.6169,-2.6167,-2.6174,-2.624,-2.6253,-2.6217,-2.6331,-2.6294,-2.6302,-2.632,-2.6332,-2.6341,-2.6336,-2.618,0,0,0,0,0,-2.598,-2.6023,-2.6047,-2.611,-2.6124,-2.6135,-2.616,-2.6157,-2.6185,-2.6197,-2.6213,-2.6241,-2.6281,-2.6307,-2.6345,-2.6421,-2.6427,-2.6455,-2.6465,-2.6472,-2.648,-2.652,-2.6533,-2.6397,-2.6397,-2.6397,0,0,-2.6014,-2.6036,-2.6064,-2.6118,-2.6139,-2.6183,-2.6145,-2.6194,-2.6226,-2.6204,-2.6265,-2.6278,-2.6308,-2.6378,-2.641,-2.6392,-2.6519,-2.648,-2.6486,-2.6489,-2.6528,-2.6541,-2.6552,-2.6401,-2.64,-2.64,0,0,-2.61,-2.6121,-2.6176,-2.6198,-2.6231,-2.6238,-2.6251,-2.628,-2.6288,-2.635,-2.6334,-2.6372,-2.6441,-2.6464,-2.6484,-2.6578,-2.6564,-2.6591,-2.6639,-2.6679,-2.669,-2.6699,-2.6732,-2.6744,-2.6598,-2.6598,-2.6598,0,-2.6138,-2.6205,-2.6205,-2.6255,-2.6279,-2.6262,-2.6317,-2.6338,-2.6381,-2.6398,-2.6377,-2.6464,-2.6483,-2.6558,-2.6581,-2.6598,-2.6612,-2.6587,-2.6688,-2.6698,-2.6707,-2.6738,-2.6751,-2.6601,-2.6601,-2.6601,-2.66,0,-2.625,-2.6297,-2.6337,-2.638,-2.6409,-2.6461,-2.6468,-2.6497,-2.6493,-2.6502,-2.6564,-2.6587,-2.6629,-2.6647,-2.6642,-2.6721,-2.6709,-2.6688,-2.665,-2.6723,-2.6752,-2.6764,-2.6606,-2.6605,-2.6604,-2.6603,0,0,-2.6359,-2.6403,-2.6417,-2.6437,-2.6472,-2.6507,-2.6558,-2.6601,-2.6625,-2.6656,-2.6698,-2.6757,-2.6739,-2.6762,-2.676,-2.6795,-2.6868,-2.677,-2.6771,-2.6787,-2.6955,-2.6969,-2.6983,-2.6859,-2.6861,-2.6863,-2.6952,0,-2.6447,-2.6537,-2.6539,-2.6622,-2.6664,-2.6649,-2.6694,-2.672,-2.673,-2.6767,-2.6777,-2.6819,-2.6792,-2.6805,-2.684,-2.6852,-2.6901,-2.6845,-2.6897,-2.6899,-2.6889,-2.6999,-2.7015,-2.7098,-2.6964,-2.6966,-2.6967,0,-2.6561,-2.6596,-2.6683,-2.6712,-2.673,-2.677,-2.6809,-2.6845,-2.6874,-2.6878,-2.6905,-2.6898,-2.6949,-2.691,-2.6981,-2.6943,-2.6964,-2.6973,-2.6976,-2.698,-2.6937,-2.7005,-2.7124,-2.7136,-2.6985,-2.6984,-2.6983,0,-2.6631,-2.67,-2.6761,-2.6778,-2.6814,-2.6842,-2.6858,-2.6885,-2.691,-2.6944,-2.696,-2.6999,-2.702,-2.705,-2.7054,-2.7025,-2.7124,-2.7086,-2.7129,-2.7129,-2.7149,-2.7148,-2.7273,-2.7165,-2.7164,-2.7164,-2.7164,0,-2.6728,-2.6781,-2.6793,-2.683,-2.689,-2.6891,-2.695,-2.6963,-2.6988,-2.7027,-2.7016,-2.7053,-2.7056,-2.7093,-2.7096,-2.7154,-2.7164,-2.7168,-2.7168,-2.7169,-2.7168,-2.7182,-2.7176,-2.7168,-2.7167,-2.7166,-2.7166,0,-2.6815,-2.6825,-2.6891,-2.6919,-2.6928,-2.697,-2.6995,-2.703,-2.7039,-2.7089,-2.7101,-2.7115,-2.7159,-2.7166,-2.7217,-2.7219,-2.7288,-2.7282,-2.7278,-2.7277,-2.7319,-2.7315,-2.7456,-2.7475,-2.7356,-2.7357,-2.7358,0,-2.6876,-2.6917,-2.6951,-2.6977,-2.6994,-2.7036,-2.7062,-2.7066,-2.7093,-2.7129,-2.716,-2.7203,-2.7238,-2.7308,-2.7323,-2.7362,-2.7356,-2.7403,-2.7362,-2.7361,-2.7356,-2.7353,-2.7357,-2.7411,-2.7412,-2.7413,-2.7414,0,-2.6983,-2.6986,-2.7024,-2.7064,-2.7096,-2.7127,-2.7157,-2.7179,-2.7186,-2.7217,-2.7262,-2.7289,-2.7342,-2.7384,-2.7423,-2.7439,-2.7428,-2.7427,-2.7439,-2.744,-2.7435,-2.7438,-2.7299,-2.7424,-2.7423,-2.7422,-2.7422,-2.7421,-2.7058,-2.7094,-2.7123,-2.7166,-2.7189,-2.7217,-2.7252,-2.7266,-2.7304,-2.7348,-2.7347,-2.7397,-2.7425,-2.7476,-2.7494,-2.7533,-2.7517,-2.7534,-2.7539,-2.7543,-2.7547,-2.743,-2.754,-2.7539,-2.7539,-2.7539,-2.7539,0,-2.7163,-2.7182,-2.7221,-2.7264,-2.7298,-2.7285,-2.7318,-2.7346,-2.7391,-2.7418,-2.7452,-2.7504,-2.7546,-2.7564,-2.7604,-2.7631,-2.7627,-2.7642,-2.7639,-2.7643,-2.7558,-2.7544,-2.7644,-2.7644,-2.7644,-2.7644,-2.7644,-2.7644,-2.7222,-2.7282,-2.7288,-2.7359,-2.7377,-2.7426,-2.7446,-2.7471,-2.7493,-2.7552,-2.7587,-2.7598,-2.7622,-2.7664,-2.7701,-2.7705,-2.772,-2.7737,-2.7739,-2.7659,-2.7649,-2.7638,-2.7625,-2.7741,-2.7741,-2.782,-2.7821,-2.7821]}]]